Total_Precipitation_Accumulation
0.10 0.15 0.40 0.55 0.58 0.49 0.40 0.32 0.29 0.29 0.28 0.26 0.27 0.26 0.24 0.23 0.22 0.21 0.22 0.24 0.26 0.32 0.40 0.43 0.48 0.59 0.58 0.41 0.28 0.19 0.15 0.12 0.11 0.11 0.10 0.12 0.15 0.18 0.16 0.15 0.17 0.23 0.29
0.11 0.18 0.41 0.60 0.68 0.61 0.51 0.41 0.31 0.28 0.28 0.30 0.32 0.32 0.30 0.27 0.26 0.28 0.31 0.33 0.34 0.39 0.43 0.47 0.50 0.54 0.51 0.39 0.23 0.13 0.08 0.06 0.05 0.04 0.03 0.04 0.09 0.14 0.11 0.10 0.13 0.22 0.26
0.13 0.23 0.42 0.61 0.74 0.71 0.62 0.52 0.41 0.37 0.34 0.35 0.38 0.39 0.39 0.35 0.35 0.36 0.37 0.40 0.42 0.41 0.43 0.49 0.48 0.45 0.40 0.32 0.22 0.13 0.08 0.06 0.04 0.03 0.03 0.05 0.12 0.16 0.14 0.14 0.18 0.24 0.26
0.19 0.28 0.42 0.61 0.79 0.79 0.72 0.62 0.55 0.55 0.48 0.44 0.45 0.47 0.48 0.43 0.42 0.43 0.43 0.43 0.43 0.40 0.40 0.39 0.34 0.31 0.22 0.18 0.17 0.14 0.10 0.07 0.04 0.04 0.04 0.06 0.13 0.22 0.23 0.22 0.25 0.28 0.28
0.31 0.38 0.53 0.68 0.83 0.87 0.78 0.74 0.69 0.69 0.66 0.59 0.55 0.55 0.57 0.54 0.48 0.48 0.45 0.43 0.38 0.35 0.32 0.31 0.24 0.18 0.14 0.11 0.11 0.12 0.09 0.07 0.05 0.04 0.04 0.07 0.12 0.25 0.24 0.23 0.23 0.24 0.28
0.45 0.51 0.68 0.81 0.90 0.94 0.85 0.80 0.77 0.76 0.76 0.72 0.62 0.61 0.62 0.64 0.59 0.49 0.45 0.40 0.34 0.31 0.29 0.26 0.21 0.16 0.13 0.11 0.10 0.09 0.08 0.06 0.04 0.04 0.05 0.07 0.10 0.22 0.22 0.20 0.20 0.22 0.25
0.65 0.72 0.84 0.99 1.12 1.15 1.06 0.97 0.88 0.81 0.78 0.78 0.70 0.65 0.66 0.69 0.68 0.56 0.45 0.37 0.31 0.28 0.25 0.22 0.19 0.17 0.14 0.12 0.12 0.09 0.07 0.05 0.04 0.04 0.06 0.08 0.12 0.22 0.22 0.20 0.20 0.21 0.21
0.85 0.91 1.04 1.20 1.26 1.33 1.24 1.11 1.05 0.96 0.85 0.82 0.80 0.77 0.72 0.73 0.75 0.62 0.46 0.38 0.34 0.28 0.25 0.23 0.21 0.18 0.16 0.14 0.12 0.10 0.06 0.04 0.03 0.03 0.04 0.06 0.11 0.20 0.22 0.20 0.19 0.20 0.19
1.12 1.20 1.24 1.30 1.35 1.47 1.33 1.14 1.10 1.07 1.00 0.93 0.88 0.84 0.74 0.71 0.71 0.61 0.45 0.39 0.36 0.32 0.28 0.26 0.25 0.23 0.19 0.17 0.14 0.10 0.07 0.04 0.03 0.03 0.03 0.05 0.09 0.17 0.22 0.22 0.23 0.24 0.22
1.40 1.49 1.45 1.42 1.43 1.54 1.49 1.25 1.08 1.00 0.98 1.01 0.95 0.81 0.63 0.57 0.62 0.59 0.43 0.38 0.36 0.33 0.29 0.28 0.26 0.25 0.22 0.18 0.14 0.10 0.08 0.06 0.04 0.04 0.05 0.06 0.09 0.15 0.19 0.22 0.23 0.26 0.26
1.70 1.72 1.70 1.60 1.48 1.53 1.56 1.35 1.23 1.11 1.04 1.03 1.01 0.78 0.63 0.61 0.59 0.54 0.39 0.31 0.34 0.33 0.28 0.28 0.30 0.30 0.25 0.20 0.15 0.10 0.08 0.06 0.05 0.05 0.06 0.06 0.11 0.16 0.20 0.22 0.21 0.22 0.22
1.78 1.83 1.88 1.75 1.66 1.61 1.60 1.51 1.44 1.27 1.16 1.10 1.03 0.89 0.75 0.67 0.64 0.56 0.46 0.32 0.31 0.32 0.31 0.31 0.31 0.34 0.29 0.22 0.17 0.14 0.10 0.07 0.07 0.06 0.06 0.06 0.12 0.17 0.21 0.22 0.20 0.21 0.20
1.97 2.01 2.05 1.92 1.87 1.76 1.66 1.53 1.47 1.30 1.22 1.19 1.16 0.99 0.88 0.80 0.70 0.71 0.64 0.50 0.42 0.33 0.34 0.32 0.34 0.30 0.26 0.24 0.22 0.17 0.12 0.11 0.09 0.07 0.05 0.08 0.13 0.20 0.26 0.28 0.25 0.24 0.26
2.21 2.27 2.23 2.13 2.05 1.93 1.76 1.55 1.36 1.26 1.17 1.12 1.11 1.07 0.96 0.87 0.76 0.67 0.66 0.56 0.49 0.39 0.36 0.34 0.31 0.28 0.26 0.26 0.26 0.20 0.14 0.12 0.10 0.08 0.05 0.05 0.09 0.18 0.24 0.27 0.28 0.29 0.34
2.47 2.45 2.44 2.33 2.15 1.97 1.86 1.71 1.40 1.19 1.06 1.05 1.06 1.02 0.95 0.81 0.70 0.67 0.68 0.66 0.58 0.47 0.42 0.39 0.35 0.31 0.29 0.29 0.28 0.22 0.18 0.15 0.12 0.11 0.08 0.06 0.05 0.11 0.20 0.25 0.29 0.34 0.39
2.63 2.70 2.69 2.51 2.31 2.00 1.82 1.76 1.56 1.26 1.08 1.04 1.01 0.98 0.95 0.84 0.72 0.67 0.64 0.68 0.66 0.61 0.57 0.52 0.46 0.44 0.41 0.38 0.33 0.28 0.25 0.22 0.18 0.16 0.12 0.09 0.07 0.09 0.15 0.25 0.37 0.46 0.50
2.73 2.90 2.89 2.76 2.56 2.18 1.88 1.73 1.61 1.39 1.22 1.12 0.97 0.93 0.94 0.91 0.84 0.77 0.69 0.67 0.68 0.70 0.72 0.70 0.65 0.62 0.55 0.47 0.40 0.38 0.32 0.26 0.20 0.19 0.17 0.16 0.14 0.12 0.12 0.21 0.35 0.45 0.51
2.77 2.90 2.94 2.88 2.75 2.45 2.07 1.86 1.69 1.49 1.34 1.22 1.12 1.06 0.98 0.96 0.95 0.91 0.78 0.68 0.67 0.74 0.77 0.74 0.70 0.67 0.58 0.52 0.45 0.40 0.36 0.29 0.25 0.21 0.19 0.16 0.16 0.14 0.13 0.15 0.24 0.35 0.44
2.54 2.80 3.03 2.92 2.80 2.68 2.41 2.18 1.97 1.69 1.50 1.36 1.18 1.10 1.12 1.09 1.07 1.04 0.86 0.73 0.69 0.70 0.71 0.75 0.73 0.70 0.61 0.54 0.51 0.47 0.42 0.35 0.28 0.25 0.20 0.17 0.16 0.15 0.15 0.14 0.16 0.20 0.29
2.28 2.59 2.82 3.04 2.95 2.97 2.90 2.60 2.30 2.02 1.70 1.51 1.31 1.15 1.13 1.14 1.14 1.15 1.04 0.87 0.82 0.77 0.69 0.68 0.70 0.76 0.74 0.67 0.62 0.56 0.51 0.45 0.38 0.30 0.25 0.21 0.17 0.15 0.15 0.14 0.14 0.15 0.19
2.06 2.35 2.50 2.70 2.87 2.92 2.86 2.57 2.25 2.02 1.87 1.72 1.50 1.33 1.26 1.21 1.18 1.18 1.17 1.06 0.93 0.86 0.77 0.72 0.72 0.74 0.80 0.86 0.85 0.71 0.58 0.51 0.43 0.35 0.30 0.25 0.21 0.18 0.18 0.19 0.21 0.21 0.22
1.77 1.97 2.26 2.31 2.54 2.59 2.52 2.51 2.37 2.27 2.15 2.02 1.83 1.56 1.41 1.37 1.29 1.20 1.17 1.14 1.03 0.96 0.94 0.94 0.91 0.87 0.84 0.89 0.96 0.93 0.77 0.63 0.49 0.37 0.34 0.32 0.28 0.27 0.25 0.23 0.23 0.25 0.27
1.46 1.76 1.93 2.03 2.20 2.42 2.48 2.61 2.71 2.66 2.38 2.11 1.92 1.80 1.65 1.56 1.48 1.35 1.25 1.24 1.19 1.07 1.00 1.03 1.08 1.09 1.08 1.08 1.07 1.20 1.08 0.80 0.59 0.44 0.36 0.35 0.33 0.33 0.31 0.31 0.30 0.30 0.31
1.11 1.46 1.81 2.00 2.11 2.27 2.55 2.55 2.47 2.34 2.13 1.88 1.87 1.92 1.89 1.77 1.66 1.51 1.42 1.35 1.32 1.26 1.17 1.18 1.19 1.23 1.30 1.28 1.25 1.19 1.12 0.97 0.90 0.68 0.44 0.37 0.34 0.32 0.33 0.33 0.32 0.31 0.31
0.93 1.19 1.49 1.78 2.05 2.24 2.33 2.37 2.40 2.23 2.05 2.01 1.94 1.91 1.83 1.73 1.67 1.59 1.53 1.51 1.47 1.44 1.41 1.43 1.42 1.39 1.39 1.40 1.37 1.32 1.29 1.17 1.04 0.98 0.73 0.52 0.48 0.43 0.38 0.35 0.35 0.36 0.38
0.81 0.97 1.23 1.49 1.64 1.88 2.09 2.16 2.19 2.16 2.15 2.10 1.91 1.83 1.84 1.82 1.75 1.64 1.62 1.63 1.64 1.62 1.57 1.55 1.56 1.58 1.57 1.53 1.52 1.42 1.37 1.32 1.18 1.17 1.05 0.80 0.72 0.62 0.55 0.50 0.46 0.45 0.46